TimeEST,TemperatureF,Dew PointF,Humidity,Sea Level PressureIn,VisibilityMPH,Wind Direction,Wind SpeedMPH,Gust SpeedMPH,PrecipitationIn,Events,Conditions,WindDirDegrees,DateUTC
12:53 AM,33.1,28.9,85,30.24,7.0,East,5.8,-,0.00,Snow,Light Snow,80,2013-03-07 05:53:00
1:53 AM,33.1,28.9,85,30.26,9.0,Calm,Calm,-,0.00,,Overcast,0,2013-03-07 06:53:00
2:53 AM,33.1,28.9,85,30.26,10.0,NNE,3.5,-,N/A,,Overcast,30,2013-03-07 07:53:00
3:53 AM,33.1,28.9,85,30.28,10.0,NE,4.6,-,N/A,,Overcast,40,2013-03-07 08:53:00
4:53 AM,33.1,28.0,82,30.30,10.0,North,3.5,-,0.00,Snow,Light Snow,350,2013-03-07 09:53:00
5:53 AM,33.1,27.0,78,30.30,10.0,NE,6.9,-,0.00,,Overcast,50,2013-03-07 10:53:00
6:53 AM,33.1,27.0,78,30.32,10.0,NE,5.8,-,N/A,,Overcast,50,2013-03-07 11:53:00
7:53 AM,33.1,27.0,78,30.33,10.0,NE,5.8,-,N/A,,Overcast,50,2013-03-07 12:53:00
8:53 AM,34.0,27.0,75,30.34,10.0,NNE,9.2,-,N/A,,Overcast,20,2013-03-07 13:53:00
9:53 AM,36.0,27.0,70,30.34,10.0,NE,10.4,-,N/A,,Mostly Cloudy,40,2013-03-07 14:53:00
10:53 AM,36.0,25.0,64,30.35,10.0,North,8.1,-,N/A,,Overcast,10,2013-03-07 15:53:00
11:53 AM,36.0,26.1,67,30.36,10.0,NNW,6.9,-,N/A,,Overcast,340,2013-03-07 16:53:00
12:53 PM,37.0,27.0,67,30.33,10.0,North,8.1,-,N/A,,Overcast,350,2013-03-07 17:53:00
1:53 PM,37.0,26.1,65,30.32,10.0,North,6.9,-,N/A,,Overcast,350,2013-03-07 18:53:00
2:53 PM,37.9,27.0,65,30.32,10.0,North,11.5,-,N/A,,Overcast,360,2013-03-07 19:53:00
3:53 PM,37.9,27.0,65,30.32,10.0,North,9.2,-,N/A,,Overcast,350,2013-03-07 20:53:00
4:53 PM,37.0,26.1,65,30.33,10.0,NNE,8.1,-,N/A,,Overcast,20,2013-03-07 21:53:00
5:53 PM,37.0,25.0,62,30.34,10.0,North,9.2,-,N/A,,Overcast,10,2013-03-07 22:53:00
6:53 PM,36.0,25.0,64,30.34,10.0,NNE,10.4,-,N/A,,Overcast,20,2013-03-07 23:53:00
7:53 PM,36.0,26.1,67,30.36,10.0,North,9.2,-,N/A,,Overcast,10,2013-03-08 00:53:00
8:53 PM,35.1,25.0,67,30.37,10.0,NNE,10.4,-,N/A,,Overcast,30,2013-03-08 01:53:00
9:53 PM,34.0,25.0,70,30.35,10.0,NNE,10.4,-,N/A,,Overcast,20,2013-03-08 02:53:00
10:53 PM,34.0,25.0,70,30.35,10.0,NNE,9.2,-,N/A,,Overcast,20,2013-03-08 03:53:00
11:53 PM,34.0,25.0,70,30.35,10.0,NNE,8.1,-,N/A,,Overcast,30,2013-03-08 04:53:00